COSMOS 2251 DEB, 33839

Orbit data source: Space-Track

COSMOS 2251 DEB, 33839 is space debris in LEO originally from a launch on Wed, 16 Jun 1993 UTC launched from the Plesetsk Missile And Space Complex (PKMTR). The debris from Iridium 33, an American commercial communications satellite, has been tracked extensively since its accidental collision with the defunct Russian satellite Cosmos 2251 in 2009. This event, occurring at high speed in low Earth orbit (LEO), generated thousands of pieces of space debris, significantly increasing the risk of further collisions. The Iridium 33 debris cloud has impacted space traffic management and orbital debris mitigation strategies, making it a subject of ongoing study in space situational awareness.

Loading next visibility...
Identifier
33839, 1993-036CG
Orbit
LEO
Country
Flag of CISCIS
Related business
Manufacturer
Unknown
Mission
Spacecraft
Bus & Motor
Unknown
Mass
Unknown
Launch date (UTC)
1993-06-16 (33 years ago)
Launch vehicle
Unknown
Launch site
Plesetsk Missile And Space Complex (PKMTR)
Object type
Payload
Rocket body
Debris
Shape & HBR
Unknown shape, 0.2 m
Radar Cross Section
Medium (>0.1 m² and <1 m²)

Expand to show TLE details & history
Last TLE update: 7 hours ago

TLE from 7 hours ago
0 COSMOS 2251 DEB
1 33839U 93036CG  26263.60699184  .00000565  00000-0  10599-3 0  9992
2 33839  74.0405  24.5258 0082655  64.6537 309.1103 14.65065557937078
Epoch: 2026-09-20T14:34Z
TLE epoch observation values (Epoch: 2026-09-20T14:34:04.094Z)
Latitude
12.47976°
Longitude
170.11922°
Altitude
642.253 km
Speed
7.558 km/s
True Right ascension
01h 52m 32s
True Declination
12° 24' 22"
Sunlit
Object was in full shadow at epoch
Visualization orbit readout
Latitude
Unknown
Longitude
Unknown
Altitude
Unknown
Speed
Unknown
Apparent Right ascension
Unknown
Apparent Declination
Unknown
Sunlit
N/A
Visualization observer readout
Local Sidereal Time
14:21:22
Azimuth
Unknown
Elevation
Unknown
Doppler factor
Unknown
Orbital elements
Apogee altitude
732.749 km
Perigee altitude
616.163 km
Semi-major axis
7,052.593 km
Eccentricity
0.00827
Inclination
74.0405°
RAAN
24.5258°
Arg. of periapsis
64.6537°
True anomaly
308.37057°
Mean anomaly
309.1103°
Eccentric anomaly
308.74092°
Mean motion
3.66454 °/min
Orbital period
98.24 mins
BSTAR
0.00010599

Documentation

Showing up to 5 results
|